Content
SEND FEEDBACK

Daily
Averages
Monthly
Summary
United States of America

MAURICEVILLE, TEXAS


Home > North America > United States > Texas
Elevation: 20 feet     Latitude: 30 14N     Longitude: 093 44W

WEATHER
 
SELECT A DAY
Number of Records: 109,129;   Date Range: 8/25/05 - 8/21/14
 
SHARE

PRINT THIS DATA

[ ← Previous Day ]
WEATHER ALMANAC - OCTOBER 29, 2013
[ Next Day → ]
[ °C ]   °F
Weather ElementAverageHighLow
Temperature73.4 °F81.7 °F (1:55 pm)66.2 °F (5:55 am)
Dewpoint67.8 °F71.4 °F (10:15 am)65.3 °F (4:55 pm)
Humidity84.1 %99 % (5:35 am)59 % (3:35 pm)
Barometer30.14 in30.18 in (10:35 am)30.11 in (3:35 pm)
Wind Speed6.9 mph12.7 mph (1:55 pm)
Wind Gust18.4 mph (12:35 pm)
Weather ElementAverage
Visibility8.8 mi
Wind DirectionESE (101.4 °)

Weather ElementTotal
Precipitation---
Cooling Degree Days9 (Base 65)
Growing Degree Days24 (Base 50)
Averaged from 69 records on October 29, 2013
WEATHER CONDITIONS BREAKOUT
WIND DIRECTION BREAKOUT
WEATHER BY HOUR - OCTOBER 29, 2013
[ °C ]   °F
Local TimeTemperatureDewpointHumidityBarometerVisibilityWind DirectionWind SpeedGust SpeedPrecipitationEventsConditions
12:35 AM71.2 °F69.3 °F93 %30.14 in10.0 miESE (110°)4.6 mphClear
12:55 AM71.1 °F69.3 °F94 %30.14 in10.0 miESE (110°)3.5 mphClear
1:15 AM70.7 °F69.1 °F95 %30.14 in10.0 miSE (130°)3.5 mphClear
1:35 AM70.7 °F68.9 °F94 %30.14 in10.0 miESE (120°)3.5 mphClear
1:55 AM70.5 °F68.5 °F93 %30.14 in10.0 miEast (100°)4.6 mphClear
2:15 AM69.3 °F68.0 °F96 %30.14 in10.0 miEast (80°)3.5 mphClear
2:35 AM69.3 °F68.0 °F96 %30.14 in10.0 miEast (90°)3.5 mphClear
2:55 AM69.3 °F67.8 °F95 %30.14 in10.0 miEast (90°)4.6 mphClear
3:15 AM69.1 °F67.8 °F96 %30.13 in10.0 miEast (80°)3.5 mphClear
3:35 AM68.0 °F66.6 °F95 %30.13 in7.0 miNE (50°)4.6 mphClear
3:55 AM67.3 °F66.4 °F97 %30.13 in7.0 miENE (70°)3.5 mphClear
4:15 AM67.3 °F66.6 °F98 %30.13 in7.0 miENE (70°)3.5 mphClear
4:35 AM67.1 °F66.4 °F98 %30.13 in7.0 miCalmClear
4:55 AM66.6 °F65.8 °F98 %30.13 in5.0 miENE (70°)3.5 mphClear
5:15 AM66.4 °F65.8 °F98 %30.13 in5.0 miNE (50°)4.6 mphClear
5:35 AM66.4 °F66.0 °F99 %30.13 in4.0 miENE (60°)4.6 mphClear
5:55 AM66.2 °F65.7 °F98 %30.14 in4.0 miENE (60°)3.5 mphScattered Clouds
6:15 AM66.6 °F66.0 °F98 %30.14 in3.0 miENE (60°)3.5 mphMostly Cloudy
6:55 AM67.6 °F67.1 °F98 %30.14 in5.0 miENE (60°)4.6 mphOvercast
7:15 AM67.5 °F67.1 °F99 %30.14 in4.0 miENE (60°)3.5 mphMostly Cloudy
7:35 AM67.3 °F66.7 °F98 %30.15 in4.0 miENE (60°)3.5 mphScattered Clouds
7:55 AM67.1 °F66.6 °F98 %30.15 in2.5 miENE (70°)3.5 mphMist
8:15 AM67.5 °F67.1 °F99 %30.14 in2.5 miEast (80°)3.5 mphMist
8:35 AM68.4 °F68.0 °F99 %30.15 in3.0 miEast (90°)3.5 mphMist
8:55 AM70.2 °F69.8 °F99 %30.15 in7.0 miEast (90°)5.8 mphScattered Clouds
9:15 AM71.1 °F70.0 °F96 %30.16 in7.0 miEast (90°)5.8 mphClear
9:55 AM74.3 °F70.9 °F89 %30.17 in10.0 miEast (100°)4.6 mphMostly Cloudy
10:15 AM76.3 °F71.4 °F85 %30.17 in10.0 miESE (110°)8.1 mphScattered Clouds
10:35 AM76.8 °F71.4 °F83 %30.18 in10.0 miESE (120°)8.1 mphClear
10:55 AM77.2 °F70.2 °F79 %30.18 in10.0 miESE (120°)8.1 mphScattered Clouds
11:15 AM77.9 °F69.1 °F74 %30.18 in10.0 miSE (130°)11.5 mph16.1 mphMostly Cloudy
11:35 AM78.6 °F68.0 °F70 %30.18 in10.0 miSE (130°)10.4 mph17.3 mphMostly Cloudy
11:55 AM78.8 °F67.3 °F68 %30.17 in10.0 miSE (130°)10.4 mphMostly Cloudy
12:15 PM79.0 °F68.0 °F69 %30.17 in10.0 miESE (120°)11.5 mph16.1 mphMostly Cloudy
12:35 PM79.3 °F67.1 °F66 %30.16 in10.0 miESE (120°)9.2 mph18.4 mphMostly Cloudy
12:55 PM79.9 °F67.1 °F65 %30.16 in10.0 miSE (140°)11.5 mphMostly Cloudy
1:15 PM79.7 °F66.2 °F63 %30.15 in10.0 miSE (130°)10.4 mph16.1 mphMostly Cloudy
1:35 PM79.5 °F66.2 °F64 %30.15 in10.0 miSE (130°)11.5 mphMostly Cloudy
1:55 PM81.7 °F67.1 °F61 %30.14 in10.0 miSSE (150°)12.7 mph18.4 mphMostly Cloudy
2:15 PM80.2 °F66.7 °F63 %30.13 in10.0 miSE (130°)8.1 mphMostly Cloudy
2:35 PM80.2 °F66.0 °F62 %30.12 in10.0 miSE (140°)10.4 mphMostly Cloudy
2:55 PM80.2 °F65.8 °F61 %30.12 in10.0 miSE (140°)10.4 mphScattered Clouds
3:15 PM79.3 °F65.7 °F63 %30.12 in10.0 miSE (130°)9.2 mphClear
3:35 PM81.3 °F65.7 °F59 %30.11 in10.0 miSE (140°)11.5 mph16.1 mphScattered Clouds
3:55 PM80.2 °F65.8 °F61 %30.11 in10.0 miSE (130°)10.4 mph16.1 mphScattered Clouds
4:15 PM80.1 °F65.7 °F61 %30.11 in10.0 miSE (130°)10.4 mphScattered Clouds
4:35 PM79.5 °F65.7 °F62 %30.11 in10.0 miESE (120°)8.1 mph17.3 mphClear
4:55 PM79.0 °F65.3 °F63 %30.11 in10.0 miSE (130°)10.4 mph17.3 mphClear
5:15 PM79.0 °F66.0 °F64 %30.11 in10.0 miSE (140°)10.4 mph17.3 mphClear
5:35 PM78.4 °F66.2 °F66 %30.11 in10.0 miSE (130°)8.1 mphClear
5:55 PM77.0 °F66.6 °F70 %30.11 in10.0 miESE (110°)10.4 mphScattered Clouds
6:15 PM76.1 °F67.1 °F74 %30.11 in10.0 miESE (120°)8.1 mphClear
6:35 PM75.4 °F67.6 °F77 %30.11 in10.0 miESE (110°)10.4 mphScattered Clouds
6:55 PM74.5 °F68.2 °F81 %30.12 in10.0 miEast (100°)4.6 mphClear
7:15 PM73.4 °F68.9 °F86 %30.12 in10.0 miEast (100°)5.8 mphClear
7:35 PM72.9 °F69.1 °F88 %30.13 in10.0 miEast (100°)3.5 mphClear
7:55 PM72.7 °F69.1 °F88 %30.13 in10.0 miEast (100°)5.8 mphClear
8:15 PM72.5 °F69.4 °F90 %30.13 in10.0 miEast (90°)5.8 mphClear
8:35 PM72.5 °F69.4 °F90 %30.14 in10.0 miEast (100°)6.9 mphClear
8:55 PM72.3 °F69.4 °F91 %30.15 in10.0 miEast (100°)5.8 mphScattered Clouds
9:15 PM72.3 °F69.4 °F91 %30.14 in10.0 miEast (100°)6.9 mphClear
9:35 PM72.1 °F69.4 °F91 %30.14 in10.0 miEast (100°)8.1 mphClear
9:55 PM72.1 °F69.4 °F91 %30.14 in10.0 miEast (90°)8.1 mphClear
10:15 PM72.0 °F69.3 °F91 %30.14 in10.0 miEast (100°)8.1 mphScattered Clouds
10:35 PM72.0 °F69.4 °F92 %30.14 in10.0 miEast (100°)8.1 mphClear
10:55 PM71.8 °F69.8 °F93 %30.14 in10.0 miEast (100°)6.9 mphClear
11:15 PM72.0 °F69.8 °F93 %30.14 in10.0 miEast (100°)9.2 mphClear
11:35 PM72.1 °F70.2 °F93 %30.14 in10.0 miEast (100°)8.1 mphClear
11:55 PM72.0 °F70.0 °F93 %30.13 in10.0 miEast (90°)9.2 mphClear
Hourly data recorded from KORG, located miles away from Mauriceville, Texas







STORIES FROM OUR PARTNERS